Location: Coed Ely
(51.5661°N, 3.4150°W)
Time: 20:10:44
(UTC+00:00)

Cosmos 1937 Rocket - Pass Details

Date: 28 January 2021
Orbit: 746 x 780 km, 74.0° (Epoch: 27 February)

Event Time Altitude Azimuth Distance (km) Brightness Sun altitude
Rises 18:50:25 0° 208° (SSW) 3,251 7.3 -17.6°
Reaches altitude 10° 18:52:48 10° 210° (SSW) 2,329 6.5 -18.0°
Maximum altitude 18:58:06 75° 296° (WNW) 812 3.7 -18.8°
Enters shadow 19:03:17 11° 22° (NNE) 2,280 5.7 -19.6°
